Hourly Data Report for February 24, 2021

TORONTO CITY
ONTARIO
Current Station Operator: ECCC - MSC

43°40'00.000" N
79°24'00.000" W
112.50 m
6158355
71508
XTO

Download Data

Hourly Data (February 2021)
Hourly Data Report for February 24, 2021
TIME
LST
Temp Definition
°C
Dew Point Definition
°C
Rel Hum Definition
%
Precip. Amount Definition
mm

Wind Dir Definition
10's deg

Wind Spd Definition
km/h
Visibility Definition
km
Stn Press Definition
kPa
Hmdx Definition


Wind Chill Definition


Weather Definition


00:00 2.5 -1.4 75 0.0       99.84     LegendNANA
01:00 1.8 -1.8 77 0.0       99.88     LegendNANA
02:00 1.7 -1.5 79 0.0       99.87     LegendNANA
03:00 1.5 -1.6 80 0.0       99.82     LegendNANA
04:00 1.0 -1.8 82 0.0       99.83     LegendNANA
05:00 1.4 -1.8 79 0.0       99.90     LegendNANA
06:00 2.2 -1.7 75 0.0       99.84     LegendNANA
07:00 1.9 -1.4 79 0.0       99.75     LegendNANA
08:00 2.1 -0.5 83 0.0       99.66     LegendNANA
09:00 3.6 -0.9 72 0.0       99.51     LegendNANA
10:00 4.2 -1.2 68 0.0       99.36     LegendNANA
11:00 3.9 -0.8 71 0.0       99.18     LegendNANA
12:00 5.3 -1.2 63 0.0       98.95     LegendNANA
13:00 8.0 -1.5 51 0.0       98.79     LegendNANA
14:00 7.3 -0.8 56 0.0       98.65     LegendNANA
15:00 8.8 -0.3 53 0.0       98.64     LegendNANA
16:00 8.5 -0.2 54 0.0       98.69     LegendNANA
17:00 8.5 0.0 55 0.0       98.75     LegendNANA
18:00 6.6 0.3 64 0.0       98.92     LegendNANA
19:00 5.4 0.1 69 0.0       99.06     LegendNANA
20:00 4.3 -0.8 69 0.0       99.26     LegendNANA
21:00 3.2 -3.0 63 0.0       99.52     LegendNANA
22:00 1.8 -3.0 70 0.0       99.77     LegendNANA
23:00 1.6 -3.6 68 0.0       99.96     LegendNANA

Notes on Data Quality.

Legend

  • E = Estimated
  • M = Missing
  • NA = Not Available*
  • [empty] = Indicates an unobserved value
Date modified: